| time (UTC) | temp F | wind direction | speed MPH | gust MPH | rain 1hr in | rain 24hr in | rain mn in | humidity % | barometer mb |
| 20260506112707 | 67 | 264 | 5.0 | 6.0 | 0.00 | 0.00 | 0.00 | 73 | 1006.7 |
| 20260506112205 | 67 | 245 | 4.0 | 7.0 | 0.00 | 0.00 | 0.00 | 73 | 1006.7 |
| 20260506111702 | 66 | 263 | 4.0 | 4.0 | 0.00 | 0.00 | 0.00 | 73 | 1006.5 |
| 20260506111201 | 66 | 313 | 2.0 | 2.0 | 0.00 | 0.00 | 0.00 | 74 | 1006.6 |
| 20260506110657 | 66 | 187 | 3.0 | 4.0 | 0.00 | 0.00 | 0.00 | 74 | 1006.6 |
| 20260506110155 | 66 | 260 | 4.0 | 4.0 | 0.00 | 0.00 | 0.00 | 74 | 1006.5 |
| 20260506105651 | 66 | 266 | 1.0 | 2.0 | 0.00 | 0.00 | 0.00 | 75 | 1006.5 |
| 20260506105148 | 66 | 204 | 2.0 | 2.0 | 0.00 | 0.00 | 0.00 | 75 | 1006.6 |
| 20260506104646 | 66 | 182 | 4.0 | 6.0 | 0.00 | 0.00 | 0.00 | 75 | 1006.7 |
| 20260506104144 | 66 | 201 | 4.0 | 6.0 | 0.00 | 0.00 | 0.00 | 75 | 1006.8 |
| 20260506103641 | 66 | 281 | 2.0 | 2.0 | 0.00 | 0.00 | 0.00 | 75 | 1006.7 |
| 20260506103137 | 66 | 92 | 3.0 | 4.0 | 0.00 | 0.00 | 0.00 | 74 | 1006.6 |
| 20260506102636 | 66 | 291 | 2.0 | 2.0 | 0.00 | 0.00 | 0.00 | 74 | 1006.5 |
| 20260506102133 | 66 | 72 | 2.0 | 3.0 | 0.00 | 0.00 | 0.00 | 74 | 1006.6 |
| 20260506101629 | 66 | 271 | 2.0 | 2.0 | 0.00 | 0.00 | 0.00 | 74 | 1006.7 |
| 20260506101126 | 66 | 235 | 3.0 | 4.0 | 0.00 | 0.00 | 0.00 | 74 | 1006.5 |
| 20260506100625 | 66 | 321 | 2.0 | 3.0 | 0.00 | 0.00 | 0.00 | 75 | 1006.1 |
| 20260506100122 | 66 | 295 | 1.0 | 1.0 | 0.00 | 0.00 | 0.00 | 74 | 1006.1 |
| 20260506095621 | 66 | 276 | 2.0 | 3.0 | 0.00 | 0.00 | 0.00 | 74 | 1006.3 |
| 20260506095117 | 66 | 15 | 2.0 | 2.0 | 0.00 | 0.00 | 0.00 | 74 | 1006.1 |
| 20260506094615 | 66 | 276 | 7.0 | 8.0 | 0.00 | 0.00 | 0.00 | 74 | 1006.4 |
| 20260506094112 | 66 | 241 | 1.0 | 2.0 | 0.00 | 0.00 | 0.00 | 74 | 1006.6 |
| 20260506093611 | 66 | 287 | 0.0 | 1.0 | 0.00 | 0.00 | 0.00 | 74 | 1006.3 |
| 20260506093108 | 66 | 305 | 3.0 | 4.0 | 0.00 | 0.00 | 0.00 | 74 | 1006.5 |
| 20260506092605 | 66 | 335 | 0.0 | 1.0 | 0.00 | 0.00 | 0.00 | 74 | 1006.3 |
| 20260506092102 | 66 | 249 | 1.0 | 2.0 | 0.00 | 0.00 | 0.00 | 74 | 1006.3 |
| 20260506091600 | 66 | 143 | 2.0 | 3.0 | 0.00 | 0.00 | 0.00 | 73 | 1006.2 |
| 20260506091057 | 66 | 248 | 2.0 | 2.0 | 0.00 | 0.00 | 0.00 | 73 | 1006.3 |
| 20260506090555 | 66 | 334 | 1.0 | 1.0 | 0.00 | 0.00 | 0.00 | 73 | 1006.4 |
| 20260506090051 | 66 | 219 | 3.0 | 4.0 | 0.00 | 0.00 | 0.00 | 72 | 1006.1 |
| 20260506085548 | 66 | 229 | 3.0 | 4.0 | 0.00 | 0.00 | 0.00 | 71 | 1006.5 |
| 20260506085044 | 66 | 309 | 2.0 | 3.0 | 0.00 | 0.00 | 0.00 | 71 | 1006.4 |
| 20260506084542 | 66 | 221 | 3.0 | 4.0 | 0.00 | 0.00 | 0.00 | 70 | 1006.4 |
| 20260506084038 | 66 | 273 | 2.0 | 2.0 | 0.00 | 0.00 | 0.00 | 70 | 1006.4 |
| 20260506083535 | 66 | 204 | 3.0 | 3.0 | 0.00 | 0.00 | 0.00 | 69 | 1006.8 |
| 20260506083032 | 66 | 260 | 1.0 | 4.0 | 0.00 | 0.00 | 0.00 | 69 | 1006.6 |
| 20260506082529 | 67 | 307 | 1.0 | 2.0 | 0.00 | 0.00 | 0.00 | 69 | 1006.7 |
| 20260506082025 | 67 | 18 | 2.0 | 2.0 | 0.00 | 0.00 | 0.00 | 68 | 1006.7 |
| 20260506081523 | 67 | 347 | 1.0 | 1.0 | 0.00 | 0.00 | 0.00 | 67 | 1006.7 |
| 20260506081020 | 67 | 307 | 2.0 | 3.0 | 0.00 | 0.00 | 0.00 | 67 | 1006.9 |
| 20260506080518 | 67 | 207 | 1.0 | 2.0 | 0.00 | 0.00 | 0.00 | 67 | 1006.6 |
| 20260506073501 | 69 | 190 | 3.0 | 3.0 | 0.00 | 0.00 | 0.00 | 62 | 1006.7 |
| 20260506072958 | 69 | 298 | 1.0 | 1.0 | 0.00 | 0.00 | 0.00 | 62 | 1006.8 |
| 20260506072455 | 69 | 283 | 1.0 | 1.0 | 0.00 | 0.00 | 0.00 | 62 | 1006.6 |
| 20260506071953 | 69 | 36 | 2.0 | 3.0 | 0.00 | 0.00 | 0.00 | 61 | 1006.6 |
| 20260506071451 | 69 | 295 | 2.0 | 2.0 | 0.00 | 0.00 | 0.00 | 61 | 1006.8 |
| 20260506070947 | 69 | 264 | 3.0 | 3.0 | 0.00 | 0.00 | 0.00 | 60 | 1006.8 |
| 20260506070445 | 69 | 233 | 3.0 | 3.0 | 0.00 | 0.00 | 0.00 | 60 | 1007.0 |
| 20260506062422 | 71 | 306 | 1.0 | 2.0 | 0.00 | 0.00 | 0.00 | 57 | 1006.9 |
| 20260506061918 | 71 | 279 | 2.0 | 2.0 | 0.00 | 0.00 | 0.00 | 57 | 1006.9 |
| 20260506061415 | 71 | 226 | 4.0 | 7.0 | 0.00 | 0.00 | 0.00 | 57 | 1006.7 |
| 20260506060913 | 71 | 273 | 1.0 | 1.0 | 0.00 | 0.00 | 0.00 | 56 | 1006.8 |
| 20260506060410 | 71 | 243 | 2.0 | 3.0 | 0.00 | 0.00 | 0.00 | 56 | 1006.9 |
| 20260506051342 | 72 | 229 | 2.0 | 3.0 | 0.00 | 0.00 | 0.00 | 54 | 1007.4 |
| 20260506050840 | 72 | 203 | 6.0 | 8.0 | 0.00 | 0.00 | 0.00 | 54 | 1007.5 |
| 20260506050337 | 71 | 263 | 6.0 | 8.0 | 0.00 | 0.00 | 0.00 | 54 | 1007.2 |
| 20260506044827 | 72 | 316 | 2.0 | 3.0 | 0.00 | 0.00 | 0.00 | 54 | 1007.4 |
| 20260506044325 | 72 | 244 | 3.0 | 4.0 | 0.00 | 0.00 | 0.00 | 55 | 1007.4 |
| 20260506043822 | 72 | 243 | 1.0 | 3.0 | 0.00 | 0.00 | 0.00 | 55 | 1007.4 |
| 20260506043319 | 72 | 178 | 3.0 | 6.0 | 0.00 | 0.00 | 0.00 | 55 | 1007.4 |
| 20260506042818 | 72 | 191 | 3.0 | 3.0 | 0.00 | 0.00 | 0.00 | 54 | 1007.5 |
| 20260506042317 | 72 | 192 | 3.0 | 4.0 | 0.00 | 0.00 | 0.00 | 54 | 1007.3 |
| 20260506041815 | 72 | 150 | 4.0 | 6.0 | 0.00 | 0.00 | 0.00 | 54 | 1007.1 |
| 20260506041311 | 72 | 24 | 2.0 | 2.0 | 0.00 | 0.00 | 0.00 | 53 | 1007.2 |
| 20260506040808 | 72 | 44 | 1.0 | 1.0 | 0.00 | 0.00 | 0.00 | 53 | 1007.3 |
| 20260506040305 | 72 | 280 | 0.0 | 1.0 | 0.00 | 0.00 | 0.00 | 53 | 1007.2 |
| 20260506035802 | 73 | 242 | 1.0 | 2.0 | 0.00 | 0.00 | 0.00 | 52 | 1007.3 |
| 20260506035259 | 73 | 249 | 2.0 | 3.0 | 0.00 | 0.00 | 0.00 | 52 | 1007.2 |
| 20260506034757 | 73 | 141 | 3.0 | 3.0 | 0.00 | 0.00 | 0.00 | 51 | 1007.2 |
| 20260506034254 | 73 | 208 | 2.0 | 3.0 | 0.00 | 0.00 | 0.00 | 51 | 1007.3 |
| 20260506033750 | 73 | 345 | 4.0 | 6.0 | 0.00 | 0.00 | 0.00 | 50 | 1007.3 |
| 20260506033248 | 73 | 263 | 3.0 | 4.0 | 0.00 | 0.00 | 0.00 | 49 | 1007.3 |
| 20260506032744 | 73 | 245 | 1.0 | 2.0 | 0.00 | 0.00 | 0.00 | 49 | 1007.2 |
| 20260506032241 | 73 | 209 | 3.0 | 4.0 | 0.00 | 0.00 | 0.00 | 48 | 1007.3 |
| 20260506031738 | 73 | 156 | 1.0 | 2.0 | 0.00 | 0.00 | 0.00 | 48 | 1007.1 |
| 20260506031236 | 74 | 349 | 2.0 | 3.0 | 0.00 | 0.00 | 0.00 | 47 | 1007.2 |
| 20260506030733 | 74 | 310 | 1.0 | 2.0 | 0.00 | 0.00 | 0.00 | 46 | 1007.2 |
| 20260506030230 | 74 | 203 | 1.0 | 2.0 | 0.00 | 0.00 | 0.00 | 46 | 1007.1 |
| 20260506025722 | 75 | 281 | 2.0 | 3.0 | 0.00 | 0.00 | 0.00 | 45 | 1007.2 |
| 20260506025218 | 75 | 208 | 4.0 | 4.0 | 0.00 | 0.00 | 0.00 | 45 | 1007.1 |
| 20260506024715 | 75 | 280 | 1.0 | 2.0 | 0.00 | 0.00 | 0.00 | 44 | 1007.0 |
| 20260506024212 | 75 | 243 | 2.0 | 2.0 | 0.00 | 0.00 | 0.00 | 44 | 1006.9 |
| 20260506023708 | 75 | 307 | 1.0 | 2.0 | 0.00 | 0.00 | 0.00 | 44 | 1006.9 |
| 20260506023205 | 76 | 87 | 4.0 | 8.0 | 0.00 | 0.00 | 0.00 | 43 | 1006.9 |
| 20260506022702 | 76 | 147 | 2.0 | 3.0 | 0.00 | 0.00 | 0.00 | 44 | 1006.9 |
| 20260506022200 | 76 | 314 | 2.0 | 2.0 | 0.00 | 0.00 | 0.00 | 43 | 1006.8 |
| 20260506021658 | 76 | 225 | 4.0 | 4.0 | 0.00 | 0.00 | 0.00 | 43 | 1006.8 |
| 20260506021154 | 76 | 138 | 4.0 | 4.0 | 0.00 | 0.00 | 0.00 | 43 | 1006.8 |
| 20260506020651 | 76 | 314 | 5.0 | 7.0 | 0.00 | 0.00 | 0.00 | 43 | 1006.8 |
| 20260506020149 | 76 | 87 | 2.0 | 3.0 | 0.00 | 0.00 | 0.00 | 43 | 1006.8 |
| 20260506015646 | 76 | 212 | 2.0 | 3.0 | 0.00 | 0.00 | 0.00 | 42 | 1006.8 |
| 20260506015143 | 76 | 320 | 2.0 | 4.0 | 0.00 | 0.00 | 0.00 | 42 | 1006.8 |
| 20260506014635 | 76 | 170 | 3.0 | 6.0 | 0.00 | 0.00 | 0.00 | 41 | 1006.7 |
| 20260506014131 | 76 | 292 | 2.0 | 2.0 | 0.00 | 0.00 | 0.00 | 41 | 1006.7 |
| 20260506013629 | 77 | 87 | 2.0 | 2.0 | 0.00 | 0.00 | 0.00 | 40 | 1006.7 |
| 20260506013126 | 77 | 237 | 2.0 | 2.0 | 0.00 | 0.00 | 0.00 | 39 | 1006.7 |
| 20260506012622 | 77 | 159 | 2.0 | 2.0 | 0.00 | 0.00 | 0.00 | 39 | 1006.7 |
| 20260506012118 | 77 | 35 | 1.0 | 2.0 | 0.00 | 0.00 | 0.00 | 39 | 1006.6 |
| 20260506011616 | 77 | 262 | 1.0 | 2.0 | 0.00 | 0.00 | 0.00 | 38 | 1006.5 |
| 20260506011112 | 77 | 196 | 2.0 | 3.0 | 0.00 | 0.00 | 0.00 | 38 | 1006.4 |
| 20260506010612 | 77 | 92 | 2.0 | 3.0 | 0.00 | 0.00 | 0.00 | 37 | 1006.3 |
| 20260506010108 | 77 | 254 | 1.0 | 2.0 | 0.00 | 0.00 | 0.00 | 37 | 1006.2 |
| 20260506005605 | 77 | 187 | 5.0 | 9.0 | 0.00 | 0.00 | 0.00 | 37 | 1006.1 |
| 20260506005101 | 77 | 188 | 2.0 | 3.0 | 0.00 | 0.00 | 0.00 | 37 | 1006.1 |
| 20260506004558 | 77 | 244 | 6.0 | 7.0 | 0.00 | 0.00 | 0.00 | 37 | 1006.2 |
| 20260506004055 | 78 | 176 | 1.0 | 2.0 | 0.00 | 0.00 | 0.00 | 37 | 1006.2 |
| 20260506003551 | 78 | 185 | 0.0 | 1.0 | 0.00 | 0.00 | 0.00 | 37 | 1006.3 |
| 20260506003048 | 77 | 229 | 4.0 | 6.0 | 0.00 | 0.00 | 0.00 | 36 | 1006.2 |
| 20260506002543 | 78 | 266 | 5.0 | 7.0 | 0.00 | 0.00 | 0.00 | 37 | 1006.0 |
| 20260506002040 | 77 | 259 | 2.0 | 3.0 | 0.00 | 0.00 | 0.00 | 36 | 1005.9 |
| 20260506001536 | 77 | 287 | 0.0 | 0.0 | 0.00 | 0.00 | 0.00 | 36 | 1005.9 |
| 20260506001033 | 78 | 252 | 2.0 | 2.0 | 0.00 | 0.00 | 0.00 | 36 | 1006.0 |
| 20260506000531 | 78 | 315 | 0.0 | 0.0 | 0.00 | 0.00 | 0.00 | 36 | 1006.0 |
| 20260506000028 | 78 | 211 | 2.0 | 2.0 | 0.00 | 0.00 | 0.00 | 36 | 1005.8 |
| 20260505235526 | 78 | 233 | 2.0 | 3.0 | 0.00 | 0.00 | 0.00 | 36 | 1005.8 |
| 20260505235022 | 78 | 256 | 4.0 | 4.0 | 0.00 | 0.00 | 0.00 | 35 | 1005.9 |
| 20260505234519 | 78 | 346 | 1.0 | 2.0 | 0.00 | 0.00 | 0.00 | 35 | 1005.6 |
| 20260505234016 | 79 | 297 | 3.0 | 4.0 | 0.00 | 0.00 | 0.00 | 34 | 1005.7 |
| 20260505233514 | 79 | 243 | 4.0 | 6.0 | 0.00 | 0.00 | 0.00 | 34 | 1005.7 |
| 20260505233011 | 79 | 300 | 1.0 | 1.0 | 0.00 | 0.00 | 0.00 | 35 | 1005.5 |
| 20260505232509 | 79 | 314 | 1.0 | 2.0 | 0.00 | 0.00 | 0.00 | 34 | 1005.3 |
| 20260505232006 | 79 | 266 | 1.0 | 2.0 | 0.00 | 0.00 | 0.00 | 34 | 1005.3 |
| 20260505231503 | 79 | 240 | 4.0 | 6.0 | 0.00 | 0.00 | 0.00 | 34 | 1005.3 |
| 20260505231002 | 79 | 308 | 1.0 | 2.0 | 0.00 | 0.00 | 0.00 | 34 | 1005.3 |
| 20260505230458 | 80 | 170 | 1.0 | 3.0 | 0.00 | 0.00 | 0.00 | 34 | 1005.2 |
| 20260505225955 | 80 | 252 | 1.0 | 3.0 | 0.00 | 0.00 | 0.00 | 33 | 1005.2 |
| 20260505225452 | 80 | 287 | 3.0 | 4.0 | 0.00 | 0.00 | 0.00 | 33 | 1004.9 |
| 20260505224948 | 80 | 208 | 3.0 | 4.0 | 0.00 | 0.00 | 0.00 | 33 | 1005.1 |
| 20260505224445 | 80 | 296 | 2.0 | 3.0 | 0.00 | 0.00 | 0.00 | 33 | 1004.8 |
| 20260505223942 | 81 | 193 | 5.0 | 7.0 | 0.00 | 0.00 | 0.00 | 32 | 1004.9 |
| 20260505223439 | 81 | 280 | 7.0 | 9.0 | 0.00 | 0.00 | 0.00 | 32 | 1005.0 |
| 20260505222935 | 81 | 84 | 1.0 | 3.0 | 0.00 | 0.00 | 0.00 | 33 | 1005.0 |
| 20260505222432 | 81 | 294 | 3.0 | 4.0 | 0.00 | 0.00 | 0.00 | 33 | 1004.7 |
| 20260505221927 | 81 | 198 | 2.0 | 2.0 | 0.00 | 0.00 | 0.00 | 33 | 1004.6 |
| 20260505221425 | 81 | 278 | 3.0 | 3.0 | 0.00 | 0.00 | 0.00 | 33 | 1004.6 |
| 20260505220922 | 82 | 225 | 3.0 | 4.0 | 0.00 | 0.00 | 0.00 | 32 | 1004.5 |
| 20260505220419 | 82 | 235 | 5.0 | 8.0 | 0.00 | 0.00 | 0.00 | 32 | 1004.5 |
| 20260505215917 | 82 | 228 | 5.0 | 7.0 | 0.00 | 0.00 | 0.00 | 33 | 1004.4 |
| 20260505215415 | 82 | 229 | 2.0 | 2.0 | 0.00 | 0.00 | 0.00 | 34 | 1004.3 |
| 20260505214912 | 82 | 250 | 4.0 | 6.0 | 0.00 | 0.00 | 0.00 | 34 | 1004.4 |
| 20260505214410 | 82 | 266 | 5.0 | 7.0 | 0.00 | 0.00 | 0.00 | 34 | 1004.7 |
| 20260505213907 | 83 | 196 | 1.0 | 2.0 | 0.00 | 0.00 | 0.00 | 33 | 1004.4 |
| 20260505213405 | 83 | 59 | 2.0 | 3.0 | 0.00 | 0.00 | 0.00 | 33 | 1004.6 |
| 20260505212900 | 82 | 226 | 4.0 | 4.0 | 0.00 | 0.00 | 0.00 | 33 | 1004.5 |
| 20260505212357 | 82 | 225 | 1.0 | 2.0 | 0.00 | 0.00 | 0.00 | 34 | 1004.4 |
| 20260505211854 | 82 | 202 | 3.0 | 4.0 | 0.00 | 0.00 | 0.00 | 33 | 1004.3 |
| 20260505211351 | 82 | 271 | 2.0 | 3.0 | 0.00 | 0.00 | 0.00 | 33 | 1004.3 |
| 20260505210847 | 82 | 263 | 4.0 | 8.0 | 0.00 | 0.00 | 0.00 | 33 | 1004.3 |
| 20260505210345 | 83 | 246 | 6.0 | 11.0 | 0.00 | 0.00 | 0.00 | 32 | 1004.2 |
| 20260505205841 | 84 | 198 | 2.0 | 4.0 | 0.00 | 0.00 | 0.00 | 32 | 1003.9 |
| 20260505205340 | 84 | 225 | 4.0 | 6.0 | 0.00 | 0.00 | 0.00 | 31 | 1004.0 |
| 20260505204836 | 84 | 283 | 4.0 | 8.0 | 0.00 | 0.00 | 0.00 | 33 | 1004.0 |
| 20260505204334 | 84 | 201 | 6.0 | 9.0 | 0.00 | 0.00 | 0.00 | 32 | 1004.0 |
| 20260505203831 | 85 | 239 | 4.0 | 7.0 | 0.00 | 0.00 | 0.00 | 32 | 1004.0 |
| 20260505203327 | 84 | 273 | 2.0 | 2.0 | 0.00 | 0.00 | 0.00 | 32 | 1004.1 |
| 20260505202824 | 85 | 203 | 11.0 | 14.0 | 0.00 | 0.00 | 0.00 | 31 | 1004.2 |
| 20260505202320 | 84 | 254 | 4.0 | 6.0 | 0.00 | 0.00 | 0.00 | 32 | 1004.2 |
| 20260505201817 | 84 | 273 | 2.0 | 2.0 | 0.00 | 0.00 | 0.00 | 32 | 1004.5 |
| 20260505201314 | 84 | 145 | 3.0 | 3.0 | 0.00 | 0.00 | 0.00 | 32 | 1004.5 |
| 20260505200813 | 85 | 252 | 3.0 | 4.0 | 0.00 | 0.00 | 0.00 | 32 | 1004.5 |
| 20260505200309 | 83 | 208 | 9.0 | 14.0 | 0.00 | 0.00 | 0.00 | 32 | 1004.5 |
| 20260505195810 | 83 | 179 | 4.0 | 6.0 | 0.00 | 0.00 | 0.00 | 33 | 1004.5 |
| 20260505195308 | 83 | 285 | 5.0 | 8.0 | 0.00 | 0.00 | 0.00 | 33 | 1004.5 |
| 20260505194804 | 84 | 221 | 3.0 | 6.0 | 0.00 | 0.00 | 0.00 | 32 | 1004.6 |
| 20260505194302 | 83 | 298 | 10.0 | 17.0 | 0.00 | 0.00 | 0.00 | 33 | 1004.6 |
| 20260505193757 | 85 | 219 | 5.0 | 7.0 | 0.00 | 0.00 | 0.00 | 33 | 1004.6 |
| 20260505193255 | 84 | 192 | 6.0 | 9.0 | 0.00 | 0.00 | 0.00 | 32 | 1004.8 |
| 20260505192753 | 84 | 257 | 6.0 | 8.0 | 0.00 | 0.00 | 0.00 | 32 | 1004.9 |
| 20260505192251 | 85 | 117 | 8.0 | 11.0 | 0.00 | 0.00 | 0.00 | 31 | 1004.8 |
| 20260505191748 | 84 | 246 | 1.0 | 1.0 | 0.00 | 0.00 | 0.00 | 32 | 1004.9 |
| 20260505191247 | 84 | 224 | 8.0 | 11.0 | 0.00 | 0.00 | 0.00 | 33 | 1005.0 |
| 20260505190742 | 84 | 171 | 2.0 | 4.0 | 0.00 | 0.00 | 0.00 | 34 | 1005.1 |
| 20260505190237 | 85 | 219 | 9.0 | 13.0 | 0.00 | 0.00 | 0.00 | 33 | 1005.0 |
| 20260505185734 | 85 | 159 | 4.0 | 6.0 | 0.00 | 0.00 | 0.00 | 32 | 1005.2 |
| 20260505185231 | 84 | 159 | 5.0 | 8.0 | 0.00 | 0.00 | 0.00 | 34 | 1005.0 |
| 20260505184727 | 84 | 212 | 5.0 | 7.0 | 0.00 | 0.00 | 0.00 | 34 | 1005.1 |
| 20260505184225 | 84 | 80 | 5.0 | 7.0 | 0.00 | 0.00 | 0.00 | 35 | 1005.2 |
| 20260505183721 | 84 | 233 | 4.0 | 6.0 | 0.00 | 0.00 | 0.00 | 35 | 1005.4 |
| 20260505183219 | 83 | 253 | 8.0 | 14.0 | 0.00 | 0.00 | 0.00 | 36 | 1005.8 |
| 20260505182714 | 83 | 314 | 2.0 | 3.0 | 0.00 | 0.00 | 0.00 | 37 | 1005.5 |
| 20260505182212 | 85 | 330 | 3.0 | 3.0 | 0.00 | 0.00 | 0.00 | 34 | 1005.8 |
| 20260505181708 | 84 | 261 | 2.0 | 2.0 | 0.00 | 0.00 | 0.00 | 33 | 1005.6 |
| 20260505181206 | 83 | 283 | 4.0 | 4.0 | 0.00 | 0.00 | 0.00 | 34 | 1005.8 |
| 20260505180702 | 85 | 235 | 1.0 | 1.0 | 0.00 | 0.00 | 0.00 | 33 | 1005.6 |
| 20260505180159 | 84 | 207 | 8.0 | 11.0 | 0.00 | 0.00 | 0.00 | 33 | 1005.9 |
| 20260505175655 | 83 | 332 | 7.0 | 8.0 | 0.00 | 0.00 | 0.00 | 34 | 1005.9 |
| 20260505175151 | 83 | 178 | 11.0 | 16.0 | 0.00 | 0.00 | 0.00 | 34 | 1005.6 |
| 20260505174648 | 83 | 166 | 7.0 | 8.0 | 0.00 | 0.00 | 0.00 | 35 | 1005.8 |
| 20260505174144 | 83 | 273 | 2.0 | 3.0 | 0.00 | 0.00 | 0.00 | 37 | 1005.9 |
| 20260505173641 | 82 | 295 | 4.0 | 4.0 | 0.00 | 0.00 | 0.00 | 37 | 1005.8 |
| 20260505173138 | 84 | 261 | 7.0 | 9.0 | 0.00 | 0.00 | 0.00 | 37 | 1005.9 |
| 20260505172635 | 83 | 236 | 6.0 | 8.0 | 0.00 | 0.00 | 0.00 | 36 | 1005.9 |
| 20260505172132 | 83 | 278 | 3.0 | 3.0 | 0.00 | 0.00 | 0.00 | 38 | 1005.9 |
| 20260505171631 | 82 | 164 | 1.0 | 1.0 | 0.00 | 0.00 | 0.00 | 37 | 1005.8 |
| 20260505171129 | 84 | 270 | 5.0 | 7.0 | 0.00 | 0.00 | 0.00 | 37 | 1006.1 |
| 20260505170626 | 82 | 237 | 3.0 | 6.0 | 0.00 | 0.00 | 0.00 | 38 | 1006.0 |
| 20260505170122 | 82 | 329 | 1.0 | 2.0 | 0.00 | 0.00 | 0.00 | 39 | 1006.0 |
| 20260505165617 | 83 | 264 | 10.0 | 13.0 | 0.00 | 0.00 | 0.00 | 38 | 1006.2 |
| 20260505165114 | 83 | 240 | 3.0 | 4.0 | 0.00 | 0.00 | 0.00 | 37 | 1006.3 |
| 20260505164609 | 82 | 161 | 8.0 | 10.0 | 0.00 | 0.00 | 0.00 | 38 | 1006.6 |
| 20260505164108 | 83 | 328 | 2.0 | 2.0 | 0.00 | 0.00 | 0.00 | 38 | 1006.3 |
| 20260505163606 | 82 | 218 | 3.0 | 3.0 | 0.00 | 0.00 | 0.00 | 37 | 1006.6 |
| 20260505163102 | 82 | 117 | 3.0 | 6.0 | 0.00 | 0.00 | 0.00 | 38 | 1006.6 |
| 20260505162600 | 81 | 220 | 5.0 | 6.0 | 0.00 | 0.00 | 0.00 | 38 | 1006.7 |
| 20260505162058 | 81 | 243 | 6.0 | 8.0 | 0.00 | 0.00 | 0.00 | 37 | 1006.7 |
| 20260505161554 | 81 | 301 | 3.0 | 4.0 | 0.00 | 0.00 | 0.00 | 38 | 1007.1 |
| 20260505161052 | 81 | 54 | 4.0 | 4.0 | 0.00 | 0.00 | 0.00 | 37 | 1007.2 |
| 20260505160550 | 82 | 227 | 3.0 | 3.0 | 0.00 | 0.00 | 0.00 | 38 | 1007.1 |
| 20260505153026 | 80 | 133 | 5.0 | 8.0 | 0.00 | 0.00 | 0.00 | 41 | 1007.6 |
| 20260505152523 | 80 | 255 | 3.0 | 3.0 | 0.00 | 0.00 | 0.00 | 43 | 1007.4 |
| 20260505152019 | 80 | 289 | 1.0 | 1.0 | 0.00 | 0.00 | 0.00 | 42 | 1007.5 |
| 20260505151514 | 80 | 170 | 4.0 | 6.0 | 0.00 | 0.00 | 0.00 | 41 | 1007.2 |
| 20260505151011 | 80 | 8 | 2.0 | 2.0 | 0.00 | 0.00 | 0.00 | 43 | 1007.4 |
| 20260505150508 | 79 | 157 | 4.0 | 6.0 | 0.00 | 0.00 | 0.00 | 43 | 1007.4 |
| 20260505140427 | 76 | 217 | 3.0 | 3.0 | 0.00 | 0.00 | 0.00 | 47 | 1007.8 |
| 20260505124841 | 64 | 332 | 0.0 | 1.0 | 0.00 | 0.00 | 0.00 | 70 | 1007.7 |
| 20260505124337 | 64 | 334 | 2.0 | 2.0 | 0.00 | 0.00 | 0.00 | 71 | 1007.7 |
| 20260505123833 | 63 | 329 | 0.0 | 0.0 | 0.00 | 0.00 | 0.00 | 72 | 1007.7 |
| 20260505123330 | 64 | 28 | 2.0 | 2.0 | 0.00 | 0.00 | 0.00 | 72 | 1008.1 |
| 20260505122826 | 63 | 26 | 0.0 | 1.0 | 0.00 | 0.00 | 0.00 | 72 | 1007.9 |
| 20260505122323 | 62 | 309 | 0.0 | 0.0 | 0.00 | 0.00 | 0.00 | 75 | 1007.8 |
| 20260505121820 | 61 | 286 | 0.0 | 0.0 | 0.00 | 0.00 | 0.00 | 83 | 1007.9 |
| 20260505121317 | 61 | 258 | 0.0 | 1.0 | 0.00 | 0.00 | 0.00 | 81 | 1008.1 |
| 20260505120813 | 60 | 298 | 0.0 | 0.0 | 0.00 | 0.00 | 0.00 | 81 | 1008.2 |
| 20260505120309 | 60 | 291 | 0.0 | 0.0 | 0.00 | 0.00 | 0.00 | 82 | 1008.1 |
| 20260505115808 | 59 | 292 | 1.0 | 1.0 | 0.00 | 0.00 | 0.00 | 82 | 1008.3 |
| 20260505115306 | 59 | 342 | 2.0 | 2.0 | 0.00 | 0.00 | 0.00 | 85 | 1008.1 |
| 20260505114803 | 59 | 0 | 1.0 | 1.0 | 0.00 | 0.00 | 0.00 | 83 | 1008.1 |
| 20260505114259 | 59 | 288 | 0.0 | 0.0 | 0.00 | 0.00 | 0.00 | 83 | 1008.1 |
| 20260505113755 | 59 | 296 | 0.0 | 1.0 | 0.00 | 0.00 | 0.00 | 84 | 1008.3 |
| 20260505113252 | 60 | 285 | 0.0 | 1.0 | 0.00 | 0.00 | 0.00 | 82 | 1008.0 |